Find Starlink 5702

NORAD ID: 55622 Int'l Des: 2023-020 Owner: SPXS Country: US Constellation: starlink operational
LEOCIRCULAR

リアルタイム位置

3D地球を読み込み中...

Starlink 5702について

説明を読み込み中...

次回通過

Passes for default location (London). Set your location on the main map for personalized predictions.

高度履歴

Loading altitude history...

軌道要素

1 55622U 23020BF 26126.05545264 .00000547 00000-0 29397-4 0 9995
2 55622 43.0062 30.1683 0001251 270.1610 89.9098 15.27580590177813
Epoch: May 6, 2026 • Age: 16 hours

現在のステータス

高度 482.2 km
速度 7.63 km/s
衛星直下点 10.03°N, 83.55°W
打ち上げ日 Feb 12, 2023
運用期間 3.2 years
タイプ internet

技術仕様

分類 Payload
質量 305.00 kg
乾燥質量 290.00 kg
総質量 305.00 kg
長さ 0.20 m
直径 2.80 m
スパン 9.00 m
形状 Box + pan
製造者 SPXS
バスタイプ Starlink
フェーズステータス In Orbit
所有者/国 SPXS/US

Most Searched